Powrót do katalogu

STARLINK-30460

AktywnyŁącznośćVLEO
NORAD 57870·PAYLOAD·🇺🇸 United States

Wystrzelony Sep 16, 2023 z Cape Canaveral Space Force Station

Loading…

Następne Przeloty (najbliższe 24 godziny)

TLE

ŚwieżeSource: CelesTrak SupGP

Epoka: Sep 14, 2026, 22:20 UTC

1 57870C 23144G   26257.93104167  .00008724  00000+0  31588-3 0  2579
2 57870  43.0027 296.5061 0001541 300.3318 252.6237 15.27583382    15

Śledź STARLINK-30460 w czasie rzeczywistym z AllMySat

Download on the App Store